"read_dt","SO2 (ppb)","flags","PMT voltage (V)","lamp voltage (V)","lamp intensity (Hz)","internal temp (C)","react chamber temp (C)","sample flow (l/min)","pres (mmHg)","SO2 bkg (ppb)","SO2 coefficient"
2018-07-16 00:00:00,-2.517E-01,4C000000*,-702.6,966.618,89,28.2,45.2,0.409,739.6,2.1,1.050*
2018-07-16 00:01:00,-1.858E-01,4C000000*,-702.6,967.831,89,28.2,44.8,0.409,739.6,2.1,1.050*
2018-07-16 00:02:00,-3.217E-01,4C000000*,-702.6,967.427,90,28.3,45.1,0.409,739.6,2.1,1.050*
2018-07-16 00:03:00,-3.334E-01,4C000000*,-703.0,967.831,90,28.2,44.9,0.409,739.3,2.1,1.050*
2018-07-16 00:04:00,-3.207E-01,4C000000*,-702.6,966.618,89,28.1,45.0,0.409,739.6,2.1,1.050*
2018-07-16 00:05:00,-2.579E-01,4C000000*,-703.0,967.022,89,28.1,45.1,0.409,739.3,2.1,1.050*
2018-07-16 00:06:00,-1.943E-01,4C000000*,-702.6,967.831,88,28.2,44.8,0.409,739.6,2.1,1.050*
2018-07-16 00:07:00,-1.799E-01,4C000000*,-702.6,967.427,89,28.2,45.2,0.409,739.6,2.1,1.050*
2018-07-16 00:08:00,-2.784E-01,4C000000*,-703.0,966.618,91,28.2,44.8,0.409,739.6,2.1,1.050*
2018-07-16 00:09:00,-3.378E-01,4C000000*,-702.6,967.022,89,28.2,45.1,0.409,739.6,2.1,1.050*
2018-07-16 00:10:00,-3.386E-01,4C000000*,-702.6,967.427,90,28.2,45.0,0.409,739.3,2.1,1.050*
2018-07-16 00:11:00,-2.288E-01,4C000000*,-703.0,967.427,91,28.2,45.0,0.409,739.3,2.1,1.050*
2018-07-16 00:12:00,-2.417E-01,4C000000*,-702.6,967.831,89,28.2,45.1,0.409,739.3,2.1,1.050*
2018-07-16 00:13:00,-2.657E-01,4C000000*,-702.6,966.214,90,28.1,44.9,0.409,739.3,2.1,1.050*
2018-07-16 00:14:00,-2.528E-01,4C000000*,-702.6,967.831,89,28.2,45.1,0.409,739.3,2.1,1.050*
2018-07-16 00:15:00,-2.916E-01,4C000000*,-703.0,967.831,89,28.2,44.8,0.409,739.3,2.1,1.050*
2018-07-16 00:16:00,-2.802E-01,4C000000*,-702.6,966.618,90,28.2,45.1,0.409,739.3,2.1,1.050*
2018-07-16 00:17:00,-2.011E-01,4C000000*,-702.3,967.427,91,28.2,44.9,0.409,739.3,2.1,1.050*
2018-07-16 00:18:00,-2.616E-01,4C000000*,-703.4,968.639,91,28.2,45.0,0.409,739.6,2.1,1.050*
2018-07-16 00:19:00,-3.217E-01,4C000000*,-702.3,966.214,90,28.2,45.0,0.409,739.3,2.1,1.050*
2018-07-16 00:20:00,-3.425E-01,4C000000*,-702.6,967.831,90,28.2,44.9,0.409,739.3,2.1,1.050*
2018-07-16 00:21:00,-2.651E-01,4C000000*,-702.6,967.427,91,28.3,45.1,0.409,739.3,2.1,1.050*
2018-07-16 00:22:00,-2.977E-01,4C000000*,-702.6,967.427,90,28.3,44.8,0.409,739.3,2.1,1.050*
2018-07-16 00:23:00,-2.490E-01,4C000000*,-702.6,967.831,90,28.2,45.2,0.409,739.3,2.1,1.050*
2018-07-16 00:24:00,-3.244E-01,4C000000*,-702.6,967.427,91,28.3,44.8,0.409,739.3,2.1,1.050*
2018-07-16 00:25:00,-2.786E-01,4C000000*,-702.6,965.809,91,28.2,45.0,0.409,739.3,2.1,1.050*
2018-07-16 00:26:00,-2.488E-01,4C000000*,-703.0,967.022,90,28.3,44.9,0.409,739.3,2.1,1.050*
2018-07-16 00:27:00,-3.104E-01,4C000000*,-702.6,967.427,91,28.4,45.0,0.409,739.3,2.1,1.050*
2018-07-16 00:28:00,-3.181E-01,4C000000*,-702.6,966.618,90,28.4,45.1,0.409,739.3,2.1,1.050*
2018-07-16 00:29:00,-2.093E-01,4C000000*,-702.6,967.022,90,28.4,44.9,0.409,739.3,2.1,1.050*
2018-07-16 00:30:00,-2.711E-01,4C000000*,-703.0,967.427,91,28.3,45.2,0.409,739.3,2.1,1.050*
2018-07-16 00:31:00,-2.987E-01,4C000000*,-702.6,967.022,89,28.3,44.8,0.409,739.3,2.1,1.050*
2018-07-16 00:32:00,-2.614E-01,4C000000*,-702.6,966.214,90,28.4,45.0,0.409,739.3,2.1,1.050*
2018-07-16 00:33:00,-2.038E-01,4C000000*,-702.6,967.427,89,28.4,44.9,0.409,739.3,2.1,1.050*
2018-07-16 00:34:00,-1.756E-01,4C000000*,-702.6,967.427,89,28.3,45.0,0.409,739.3,2.1,1.050*
2018-07-16 00:35:00,-3.410E-01,4C000000*,-703.0,966.214,90,28.4,45.1,0.409,739.3,2.1,1.050*
2018-07-16 00:36:00,-2.829E-01,4C000000*,-703.0,966.618,89,28.4,44.8,0.408,739.3,2.1,1.050*
2018-07-16 00:37:00,-2.337E-01,4C000000*,-703.0,967.427,90,28.4,45.1,0.409,739.3,2.1,1.050*
2018-07-16 00:38:00,-2.181E-01,4C000000*,-703.0,967.427,90,28.4,44.9,0.409,739.0,2.1,1.050*
2018-07-16 00:39:00,-3.153E-01,4C000000*,-702.6,967.022,90,28.5,45.0,0.409,739.3,2.1,1.050*
2018-07-16 00:40:00,-2.015E-01,4C000000*,-703.0,966.618,91,28.4,44.9,0.409,739.0,2.1,1.050*
2018-07-16 00:41:00,-2.715E-01,4C000000*,-702.6,967.831,90,28.4,45.0,0.409,739.3,2.1,1.050*
2018-07-16 00:42:00,-2.860E-01,4C000000*,-702.6,967.427,90,28.4,45.1,0.409,739.3,2.1,1.050*
2018-07-16 00:43:00,-2.020E-01,4C000000*,-702.6,967.427,89,28.4,44.9,0.409,739.3,2.1,1.050*
2018-07-16 00:44:00,-2.330E-01,4C000000*,-703.0,967.831,89,28.4,45.1,0.409,739.3,2.1,1.050*
2018-07-16 00:45:00,-3.700E-01,4C000000*,-702.6,967.022,89,28.4,44.9,0.409,739.0,2.1,1.050*
2018-07-16 00:46:00,-1.991E-01,4C000000*,-702.6,967.831,90,28.4,45.1,0.409,739.3,2.1,1.050*
2018-07-16 00:47:00,-2.504E-01,4C000000*,-703.0,967.427,89,28.4,44.8,0.409,739.0,2.1,1.050*
2018-07-16 00:48:00,-2.551E-01,4C000000*,-703.0,966.618,89,28.4,45.0,0.409,739.0,2.1,1.050*
2018-07-16 00:49:00,-2.416E-01,4C000000*,-703.0,967.022,90,28.4,45.0,0.409,739.3,2.1,1.050*
2018-07-16 00:50:00,-3.155E-01,4C000000*,-703.0,967.022,90,28.4,45.0,0.409,739.0,2.1,1.050*
2018-07-16 00:51:00,-2.949E-01,4C000000*,-702.6,967.022,90,28.4,45.1,0.409,739.0,2.1,1.050*
2018-07-16 00:52:00,-2.294E-01,4C000000*,-703.0,967.427,90,28.4,44.8,0.409,739.0,2.1,1.050*
2018-07-16 00:53:00,-3.090E-01,4C000000*,-702.6,967.022,90,28.4,45.2,0.409,739.0,2.1,1.050*
2018-07-16 00:54:00,-2.388E-01,4C000000*,-703.0,967.427,90,28.4,44.8,0.409,739.0,2.1,1.050*
2018-07-16 00:55:00,-1.972E-01,4C000000*,-702.6,966.214,91,28.4,45.0,0.409,739.0,2.1,1.050*
2018-07-16 00:56:00,-2.591E-01,4C000000*,-703.0,966.618,90,28.4,44.9,0.409,739.0,2.1,1.050*
2018-07-16 00:57:00,-3.280E-01,4C000000*,-702.6,966.214,89,28.4,45.0,0.409,739.0,2.1,1.050*
2018-07-16 00:58:00,-1.692E-01,4C000000*,-702.6,968.639,91,28.4,45.1,0.409,739.0,2.1,1.050*
2018-07-16 00:59:00,-2.483E-01,4C000000*,-702.6,967.022,90,28.4,44.8,0.409,739.0,2.1,1.050*
2018-07-16 01:00:00,-2.926E-01,4C000000*,-703.0,967.022,89,28.5,45.2,0.409,739.0,2.1,1.050*
2018-07-16 01:01:00,-2.351E-01,4C000000*,-702.6,967.427,89,28.4,44.9,0.409,739.0,2.1,1.050*
2018-07-16 01:02:00,-3.016E-01,4C000000*,-703.0,966.618,89,28.4,45.0,0.409,739.0,2.1,1.050*
2018-07-16 01:03:00,-2.594E-01,4C000000*,-702.6,967.427,89,28.4,44.9,0.408,739.0,2.1,1.050*
2018-07-16 01:04:00,-3.259E-01,4C000000*,-702.6,968.235,90,28.5,45.0,0.409,739.0,2.1,1.050*
2018-07-16 01:05:00,-3.271E-01,4C000000*,-703.0,965.809,91,28.5,45.1,0.409,739.0,2.1,1.050*
2018-07-16 01:06:00,-2.778E-01,4C000000*,-703.0,965.809,91,28.4,44.9,0.409,739.0,2.1,1.050*
2018-07-16 01:07:00,-2.191E-01,4C000000*,-702.6,967.427,90,28.5,45.1,0.408,739.0,2.1,1.050*
2018-07-16 01:08:00,-3.075E-01,4C000000*,-703.4,967.022,90,28.5,44.8,0.409,739.0,2.1,1.050*
2018-07-16 01:09:00,-2.755E-01,4C000000*,-702.6,966.618,90,28.5,45.1,0.409,739.0,2.1,1.050*
2018-07-16 01:10:00,-2.907E-01,4C000000*,-702.6,966.618,90,28.4,44.9,0.409,739.0,2.1,1.050*
2018-07-16 01:11:00,-3.178E-01,4C000000*,-702.6,966.618,90,28.5,45.0,0.409,739.0,2.1,1.050*
2018-07-16 01:12:00,-2.473E-01,4C000000*,-702.6,967.022,90,28.6,45.0,0.409,739.0,2.1,1.050*
2018-07-16 01:13:00,-3.061E-01,4C000000*,-703.0,966.214,90,28.5,44.9,0.409,739.0,2.1,1.050*
2018-07-16 01:14:00,-2.706E-01,4C000000*,-702.6,967.831,90,28.5,45.1,0.409,739.0,2.1,1.050*
2018-07-16 01:15:00,-3.162E-01,4C000000*,-702.6,968.235,91,28.5,44.8,0.409,739.0,2.1,1.050*
2018-07-16 01:16:00,-1.673E-01,4C000000*,-702.6,967.022,88,28.5,45.2,0.409,739.0,2.1,1.050*
2018-07-16 01:17:00,-3.162E-01,4C000000*,-703.0,967.427,90,28.5,44.8,0.409,739.0,2.1,1.050*
2018-07-16 01:18:00,-2.857E-01,4C000000*,-702.6,967.427,90,28.6,45.0,0.409,739.0,2.1,1.050*
2018-07-16 01:19:00,-2.552E-01,4C000000*,-702.6,968.639,89,28.5,45.0,0.409,738.7,2.1,1.050*
2018-07-16 01:20:00,-2.943E-01,4C000000*,-703.0,966.618,89,28.5,45.0,0.409,739.0,2.1,1.050*
2018-07-16 01:21:00,-2.102E-01,4C000000*,-703.0,967.022,90,28.6,45.1,0.409,739.0,2.1,1.050*
2018-07-16 01:22:00,-3.643E-01,4C000000*,-702.3,966.618,90,28.6,44.9,0.409,739.0,2.1,1.050*
2018-07-16 01:23:00,-2.436E-01,4C000000*,-702.6,968.235,90,28.5,45.2,0.409,739.0,2.1,1.050*
2018-07-16 01:24:00,-1.846E-01,4C000000*,-702.6,966.618,89,28.5,44.8,0.409,738.7,2.1,1.050*
2018-07-16 01:25:00,-2.602E-01,4C000000*,-702.6,967.022,90,28.6,45.1,0.409,738.7,2.1,1.050*
2018-07-16 01:26:00,-2.199E-01,4C000000*,-702.6,967.022,91,28.5,44.9,0.409,738.7,2.1,1.050*
2018-07-16 01:27:00,-2.560E-01,4C000000*,-703.0,967.427,90,28.6,45.0,0.409,739.0,2.1,1.050*
2018-07-16 01:28:00,-3.164E-01,4C000000*,-702.6,966.618,91,28.6,45.1,0.409,738.7,2.1,1.050*
2018-07-16 01:29:00,-2.703E-01,4C000000*,-702.6,966.618,90,28.6,44.9,0.409,738.7,2.1,1.050*
2018-07-16 01:30:00,-2.941E-01,4C000000*,-702.6,967.427,90,28.6,45.1,0.409,739.0,2.1,1.050*
2018-07-16 01:31:00,-2.407E-01,4C000000*,-702.6,966.618,91,28.6,44.8,0.409,738.7,2.1,1.050*
2018-07-16 01:32:00,-2.305E-01,4C000000*,-702.6,966.214,91,28.6,45.1,0.409,739.0,2.1,1.050*
2018-07-16 01:33:00,-3.019E-01,4C000000*,-702.6,967.022,90,28.6,44.9,0.409,738.7,2.1,1.050*
2018-07-16 01:34:00,-1.501E-01,4C000000*,-703.0,965.405,90,28.7,45.0,0.409,739.0,2.1,1.050*
2018-07-16 01:35:00,-2.258E-01,4C000000*,-703.0,967.831,90,28.6,45.1,0.409,739.0,2.1,1.050*
2018-07-16 01:36:00,-2.395E-01,4C000000*,-703.0,967.831,89,28.6,44.9,0.409,738.7,2.1,1.050*
2018-07-16 01:37:00,-2.303E-01,4C000000*,-703.0,966.214,91,28.6,45.1,0.409,738.7,2.1,1.050*
2018-07-16 01:38:00,-1.925E-01,4C000000*,-702.6,966.618,90,28.6,44.8,0.409,738.7,2.1,1.050*
2018-07-16 01:39:00,-3.016E-01,4C000000*,-702.6,966.618,91,28.6,45.2,0.409,738.7,2.1,1.050*
2018-07-16 01:40:00,-2.177E-01,4C000000*,-702.6,966.618,90,28.7,44.8,0.409,738.7,2.1,1.050*
2018-07-16 01:41:00,-3.030E-01,4C000000*,-703.0,968.235,90,28.7,45.1,0.409,738.7,2.1,1.050*
2018-07-16 01:42:00,-2.004E-01,4C000000*,-703.0,965.001,90,28.7,44.9,0.409,738.7,2.1,1.050*
2018-07-16 01:43:00,-3.724E-01,4C000000*,-702.6,967.831,89,28.6,45.0,0.409,739.0,2.1,1.050*
2018-07-16 01:44:00,-2.523E-01,4C000000*,-703.0,967.022,90,28.7,45.1,0.409,738.7,2.1,1.050*
2018-07-16 01:45:00,-2.927E-01,4C000000*,-702.6,967.022,90,28.6,44.9,0.409,738.7,2.1,1.050*
2018-07-16 01:46:00,-2.786E-01,4C000000*,-702.6,967.427,90,28.6,45.2,0.409,738.4,2.1,1.050*
2018-07-16 01:47:00,-2.797E-01,4C000000*,-703.0,966.214,90,28.7,44.8,0.409,738.7,2.1,1.050*
2018-07-16 01:48:00,-3.226E-01,4C000000*,-703.0,967.427,90,28.7,45.1,0.409,738.7,2.1,1.050*
2018-07-16 01:49:00,-1.972E-01,4C000000*,-702.3,966.618,90,28.7,44.9,0.409,738.7,2.1,1.050*
2018-07-16 01:50:00,-2.734E-01,4C000000*,-703.0,967.022,90,28.7,45.0,0.409,738.7,2.1,1.050*
2018-07-16 01:51:00,-2.650E-01,4C000000*,-702.6,966.214,88,28.7,45.1,0.409,738.4,2.1,1.050*
2018-07-16 01:52:00,-2.191E-01,4C000000*,-703.0,967.022,89,28.8,44.9,0.409,738.4,2.1,1.050*
2018-07-16 01:53:00,-2.095E-01,4C000000*,-702.6,966.618,91,28.7,45.2,0.409,738.7,2.1,1.050*
2018-07-16 01:54:00,-2.830E-01,4C000000*,-702.3,967.022,89,28.7,44.8,0.408,738.7,2.1,1.050*
2018-07-16 01:55:00,-2.815E-01,4C000000*,-702.3,966.618,90,28.7,45.1,0.409,738.7,2.1,1.050*
2018-07-16 01:56:00,-2.579E-01,4C000000*,-702.3,966.618,90,28.7,44.9,0.409,738.7,2.1,1.050*
2018-07-16 01:57:00,-2.563E-01,4C000000*,-702.3,966.618,90,28.7,45.0,0.409,738.7,2.1,1.050*
2018-07-16 01:58:00,-2.655E-01,4C000000*,-702.3,966.214,91,28.7,45.1,0.409,738.4,2.1,1.050*
2018-07-16 01:59:00,-3.185E-01,4C000000*,-703.0,966.618,91,28.8,44.9,0.409,738.7,2.1,1.050*
2018-07-16 02:00:00,-3.372E-01,4C000000*,-702.6,965.809,89,28.7,45.1,0.408,738.7,2.1,1.050*
2018-07-16 02:01:00,-2.381E-01,4C000000*,-703.0,968.235,90,28.7,44.8,0.409,738.4,2.1,1.050*
2018-07-16 02:02:00,-1.534E-01,4C000000*,-703.0,966.214,89,28.8,45.2,0.409,738.4,2.1,1.050*
2018-07-16 02:03:00,-2.859E-01,4C000000*,-702.6,966.618,90,28.7,44.8,0.409,738.7,2.1,1.050*
2018-07-16 02:04:00,-2.750E-01,4C000000*,-702.6,965.001,90,28.8,45.0,0.409,738.7,2.1,1.050*
2018-07-16 02:05:00,-3.329E-01,4C000000*,-702.6,967.022,91,28.7,45.0,0.409,738.4,2.1,1.050*
2018-07-16 02:06:00,-2.674E-01,4C000000*,-703.0,967.427,90,28.7,45.0,0.409,738.7,2.1,1.050*
2018-07-16 02:07:00,-3.251E-01,4C000000*,-703.0,966.214,90,28.7,45.0,0.408,738.4,2.1,1.050*
2018-07-16 02:08:00,-3.258E-01,4C000000*,-702.6,967.831,90,28.8,44.8,0.409,738.4,2.1,1.050*
2018-07-16 02:09:00,-3.035E-01,4C000000*,-702.6,966.618,89,28.8,45.2,0.409,738.4,2.1,1.050*
2018-07-16 02:10:00,-2.461E-01,4C000000*,-702.6,966.214,88,28.8,44.9,0.409,738.4,2.1,1.050*
2018-07-16 02:11:00,-2.365E-01,4C000000*,-703.0,968.235,90,28.9,45.0,0.409,738.4,2.1,1.050*
2018-07-16 02:12:00,-2.463E-01,4C000000*,-703.0,966.618,90,28.8,44.9,0.409,738.4,2.1,1.050*
2018-07-16 02:13:00,-2.991E-01,4C000000*,-703.0,965.809,90,28.8,45.0,0.409,738.4,2.1,1.050*
2018-07-16 02:14:00,-2.720E-01,4C000000*,-702.6,967.831,90,28.9,45.1,0.409,738.4,2.1,1.050*
2018-07-16 02:15:00,-2.915E-01,4C000000*,-702.6,966.214,90,28.8,44.9,0.409,738.7,2.1,1.050*
2018-07-16 02:16:00,-2.003E-01,4C000000*,-703.0,967.022,91,28.9,45.2,0.409,738.4,2.1,1.050*
2018-07-16 02:17:00,-2.306E-01,4C000000*,-703.0,967.022,90,28.8,44.9,0.409,738.4,2.1,1.050*
2018-07-16 02:18:00,-1.836E-01,4C000000*,-702.6,968.639,90,28.9,45.1,0.409,738.7,2.1,1.050*
2018-07-16 02:19:00,-2.666E-01,4C000000*,-702.6,967.427,88,28.9,44.9,0.409,738.4,2.1,1.050*
2018-07-16 02:20:00,-2.630E-01,4C000000*,-702.6,967.022,89,28.9,45.0,0.409,738.4,2.1,1.050*
2018-07-16 02:21:00,-2.929E-01,4C000000*,-702.3,967.022,90,28.9,45.1,0.409,738.4,2.1,1.050*
2018-07-16 02:22:00,-2.494E-01,4C000000*,-702.6,966.618,91,28.8,44.9,0.409,738.4,2.1,1.050*
2018-07-16 02:23:00,-1.501E-01,4C000000*,-703.0,967.831,90,28.9,45.1,0.409,738.4,2.1,1.050*
2018-07-16 02:24:00,-2.660E-01,4C000000*,-702.6,967.427,91,28.9,44.8,0.409,738.4,2.1,1.050*
2018-07-16 02:25:00,-2.451E-01,4C000000*,-702.6,967.831,91,28.9,45.1,0.409,738.4,2.1,1.050*
2018-07-16 02:26:00,-2.180E-01,4C000000*,-702.6,967.831,91,28.9,44.9,0.409,738.4,2.1,1.050*
2018-07-16 02:27:00,-2.453E-01,4C000000*,-703.0,967.022,90,28.9,45.0,0.409,738.4,2.1,1.050*
2018-07-16 02:28:00,-2.737E-01,4C000000*,-702.3,967.831,89,28.9,45.1,0.409,738.4,2.1,1.050*
2018-07-16 02:29:00,-2.729E-01,4C000000*,-702.6,967.427,90,28.9,45.0,0.409,738.4,2.1,1.050*
2018-07-16 02:30:00,-4.081E-01,4C000000*,-703.0,967.831,90,28.9,45.1,0.409,738.4,2.1,1.050*
2018-07-16 02:31:00,-2.286E-01,4C000000*,-702.6,967.022,89,28.9,44.8,0.409,738.4,2.1,1.050*
2018-07-16 02:32:00,-3.121E-01,4C000000*,-702.6,966.214,88,28.9,45.2,0.409,738.4,2.1,1.050*
2018-07-16 02:33:00,-2.827E-01,4C000000*,-702.6,967.022,90,29.0,44.8,0.409,738.4,2.1,1.050*
2018-07-16 02:34:00,-2.452E-01,4C000000*,-703.0,967.022,90,29.0,45.1,0.408,738.4,2.1,1.050*
2018-07-16 02:35:00,-3.705E-01,4C000000*,-702.6,967.427,89,28.9,44.9,0.409,738.4,2.1,1.050*
2018-07-16 02:36:00,-2.240E-01,4C000000*,-702.6,967.427,89,28.9,44.9,0.408,738.4,2.1,1.050*
2018-07-16 02:37:00,-3.158E-01,4C000000*,-702.6,965.001,90,29.0,45.1,0.409,738.1,2.1,1.050*
2018-07-16 02:38:00,-2.505E-01,4C000000*,-702.6,967.022,90,29.0,44.8,0.409,738.4,2.1,1.050*
2018-07-16 02:39:00,-2.586E-01,4C000000*,-702.6,965.809,89,28.9,45.2,0.408,738.1,2.1,1.050*
2018-07-16 02:40:00,-2.111E-01,4C000000*,-702.6,967.427,90,28.9,44.9,0.409,738.4,2.1,1.050*
2018-07-16 02:41:00,-3.137E-01,4C000000*,-702.6,967.022,88,28.9,45.1,0.409,738.4,2.1,1.050*
2018-07-16 02:42:00,-1.598E-01,4C000000*,-702.6,967.427,91,28.9,44.8,0.409,738.1,2.1,1.050*
2018-07-16 02:43:00,-2.520E-01,4C000000*,-703.0,967.022,90,29.0,45.0,0.409,738.4,2.1,1.050*
2018-07-16 02:44:00,-2.650E-01,4C000000*,-702.6,967.022,89,29.0,45.1,0.409,738.1,2.1,1.050*
2018-07-16 02:45:00,-2.429E-01,4C000000*,-702.3,967.022,90,29.0,44.9,0.409,738.1,2.1,1.050*
2018-07-16 02:46:00,-3.109E-01,4C000000*,-702.6,967.427,90,29.0,45.2,0.409,738.1,2.1,1.050*
2018-07-16 02:47:00,-2.861E-01,4C000000*,-702.6,967.831,90,29.0,44.8,0.409,738.1,2.1,1.050*
2018-07-16 02:48:00,-2.678E-01,4C000000*,-702.6,967.022,89,29.0,45.1,0.409,738.1,2.1,1.050*
2018-07-16 02:49:00,-3.516E-01,4C000000*,-703.0,967.427,90,29.0,44.9,0.409,738.1,2.1,1.050*
2018-07-16 02:50:00,-1.794E-01,4C000000*,-702.6,967.022,91,29.0,45.0,0.408,738.4,2.1,1.050*
2018-07-16 02:51:00,-3.280E-01,4C000000*,-702.6,967.831,90,29.0,45.0,0.408,738.1,2.1,1.050*
2018-07-16 02:52:00,-2.777E-01,4C000000*,-702.6,967.427,90,28.9,44.9,0.409,738.1,2.1,1.050*
2018-07-16 02:53:00,-2.643E-01,4C000000*,-702.6,967.831,90,29.0,45.1,0.409,738.1,2.1,1.050*
2018-07-16 02:54:00,-2.667E-01,4C000000*,-702.6,967.022,90,28.9,44.9,0.409,738.1,2.1,1.050*
2018-07-16 02:55:00,-2.728E-01,4C000000*,-702.6,967.022,90,29.1,45.1,0.408,738.1,2.1,1.050*
2018-07-16 02:56:00,-3.107E-01,4C000000*,-703.0,966.618,90,29.0,44.8,0.409,738.1,2.1,1.050*
2018-07-16 02:57:00,-2.596E-01,4C000000*,-702.6,965.809,88,29.1,45.0,0.409,738.4,2.1,1.050*
2018-07-16 02:58:00,-3.269E-01,4C000000*,-702.6,967.831,90,29.0,45.0,0.409,738.1,2.1,1.050*
2018-07-16 02:59:00,-2.339E-01,4C000000*,-703.0,967.022,88,29.0,45.0,0.408,738.1,2.1,1.050*
2018-07-16 03:00:00,-2.409E-01,4C000000*,-702.6,965.809,90,29.1,45.1,0.409,738.1,2.1,1.050*
2018-07-16 03:01:00,-2.851E-01,4C000000*,-703.4,966.618,90,29.1,44.9,0.409,738.1,2.1,1.050*
2018-07-16 03:02:00,-3.034E-01,4C000000*,-703.0,967.022,90,29.1,45.2,0.408,738.1,2.1,1.050*
2018-07-16 03:03:00,-3.175E-01,4C000000*,-702.6,967.022,89,29.1,44.8,0.409,738.1,2.1,1.050*
2018-07-16 03:04:00,-3.259E-01,4C000000*,-702.6,966.618,90,29.1,45.1,0.409,738.1,2.1,1.050*
2018-07-16 03:05:00,-2.824E-01,4C000000*,-702.6,967.022,89,29.1,44.9,0.408,737.8,2.1,1.050*
2018-07-16 03:06:00,-2.761E-01,4C000000*,-702.6,967.022,90,29.1,45.0,0.409,738.4,2.1,1.050*
2018-07-16 03:07:00,-2.944E-01,4C000000*,-702.6,965.809,89,29.1,45.1,0.409,737.8,2.1,1.050*
2018-07-16 03:08:00,-3.341E-01,4C000000*,-703.0,967.022,91,29.1,44.9,0.409,738.1,2.1,1.050*
2018-07-16 03:09:00,-2.876E-01,4C000000*,-702.6,966.618,89,29.1,45.2,0.408,738.1,2.1,1.050*
2018-07-16 03:10:00,-2.356E-01,4C000000*,-702.6,965.405,88,29.1,44.8,0.409,738.1,2.1,1.050*
2018-07-16 03:11:00,-2.602E-01,4C000000*,-702.6,967.022,90,29.1,45.1,0.408,738.1,2.1,1.050*
2018-07-16 03:12:00,-1.908E-01,4C000000*,-703.0,967.022,89,29.0,44.9,0.409,738.1,2.1,1.050*
2018-07-16 03:13:00,-2.357E-01,4C000000*,-702.6,967.022,90,29.2,45.0,0.409,737.8,2.1,1.050*
2018-07-16 03:14:00,-2.384E-01,4C000000*,-703.0,967.022,90,29.1,45.1,0.409,737.8,2.1,1.050*
2018-07-16 03:15:00,-2.811E-01,4C000000*,-703.0,967.831,91,29.1,44.9,0.409,738.1,2.1,1.050*
2018-07-16 03:16:00,-2.681E-01,4C000000*,-702.6,967.427,90,29.2,45.1,0.409,737.8,2.1,1.050*
2018-07-16 03:17:00,-3.010E-01,4C000000*,-702.6,967.427,91,29.2,44.9,0.409,737.8,2.1,1.050*
2018-07-16 03:18:00,-2.311E-01,4C000000*,-702.6,967.427,89,29.2,45.1,0.409,737.8,2.1,1.050*
2018-07-16 03:19:00,-2.951E-01,4C000000*,-703.0,967.022,90,29.2,44.9,0.409,737.8,2.1,1.050*
2018-07-16 03:20:00,-2.621E-01,4C000000*,-702.6,967.427,88,29.2,45.0,0.409,738.1,2.1,1.050*
2018-07-16 03:21:00,-2.549E-01,4C000000*,-702.6,966.618,90,29.2,45.1,0.408,737.8,2.1,1.050*
2018-07-16 03:22:00,-2.317E-01,4C000000*,-702.6,966.618,88,29.2,45.0,0.408,737.8,2.1,1.050*
2018-07-16 03:23:00,-2.730E-01,4C000000*,-703.0,967.427,92,29.2,45.0,0.408,737.8,2.1,1.050*
2018-07-16 03:24:00,-3.022E-01,4C000000*,-702.6,966.618,90,29.2,44.8,0.408,737.8,2.1,1.050*
2018-07-16 03:25:00,-3.213E-01,4C000000*,-702.6,966.214,89,29.1,45.2,0.408,737.8,2.1,1.050*
2018-07-16 03:26:00,-1.935E-01,4C000000*,-702.6,967.427,89,29.2,44.9,0.408,737.8,2.1,1.050*
2018-07-16 03:27:00,-2.441E-01,4C000000*,-702.6,966.618,90,29.3,45.1,0.408,737.8,2.1,1.050*
2018-07-16 03:28:00,-2.532E-01,4C000000*,-703.0,966.618,89,29.1,44.9,0.409,737.8,2.1,1.050*
2018-07-16 03:29:00,-1.841E-01,4C000000*,-702.6,967.427,90,29.2,44.9,0.409,737.8,2.1,1.050*
2018-07-16 03:30:00,-3.482E-01,4C000000*,-702.6,967.427,91,29.2,45.1,0.408,737.8,2.1,1.050*
2018-07-16 03:31:00,-1.470E-01,4C000000*,-702.6,968.235,91,29.2,44.9,0.408,737.8,2.1,1.050*
2018-07-16 03:32:00,-3.169E-01,4C000000*,-702.6,967.022,89,29.2,45.2,0.408,737.5,2.1,1.050*
2018-07-16 03:33:00,-2.993E-01,4C000000*,-702.6,966.618,91,29.2,44.8,0.408,737.8,2.1,1.050*
2018-07-16 03:34:00,-2.602E-01,4C000000*,-702.3,966.618,89,29.2,45.1,0.409,737.8,2.1,1.050*
2018-07-16 03:35:00,-1.391E-01,4C000000*,-703.0,967.022,91,29.2,45.0,0.408,737.8,2.1,1.050*
2018-07-16 03:36:00,-2.505E-01,4C000000*,-703.0,966.618,90,29.2,45.0,0.409,738.1,2.1,1.050*
2018-07-16 03:37:00,-2.199E-01,4C000000*,-702.6,966.618,89,29.2,45.1,0.408,737.8,2.1,1.050*
2018-07-16 03:38:00,-2.738E-01,4C000000*,-702.6,966.618,89,29.2,44.9,0.408,737.8,2.1,1.050*
2018-07-16 03:39:00,-3.335E-01,4C000000*,-702.6,967.427,89,29.3,45.2,0.408,737.5,2.1,1.050*
2018-07-16 03:40:00,-3.365E-01,4C000000*,-703.0,967.022,90,29.2,44.9,0.408,737.5,2.1,1.050*
2018-07-16 03:41:00,-2.160E-01,4C000000*,-703.0,967.831,89,29.3,45.1,0.409,737.8,2.1,1.050*
2018-07-16 03:42:00,-2.816E-01,4C000000*,-702.6,967.427,90,29.3,45.0,0.408,737.5,2.1,1.050*
2018-07-16 03:43:00,-2.628E-01,4C000000*,-702.6,967.022,89,29.2,45.0,0.408,737.5,2.1,1.050*
2018-07-16 03:44:00,-3.065E-01,4C000000*,-702.6,967.427,89,29.3,45.1,0.408,737.5,2.1,1.050*
2018-07-16 03:45:00,-3.129E-01,4C000000*,-702.6,966.618,89,29.3,44.9,0.408,737.8,2.1,1.050*
2018-07-16 03:46:00,-2.629E-01,4C000000*,-702.3,967.831,90,29.3,45.1,0.409,737.8,2.1,1.050*
2018-07-16 03:47:00,-2.880E-01,4C000000*,-702.6,967.022,89,29.3,44.9,0.409,737.5,2.1,1.050*
2018-07-16 03:48:00,-2.786E-01,4C000000*,-702.6,967.022,90,29.3,45.1,0.409,737.5,2.1,1.050*
2018-07-16 03:49:00,-3.403E-01,4C000000*,-703.0,967.831,90,29.3,44.8,0.409,737.5,2.1,1.050*
2018-07-16 03:50:00,-2.595E-01,4C000000*,-703.0,968.235,89,29.4,45.0,0.409,737.5,2.1,1.050*
2018-07-16 03:51:00,-3.185E-01,4C000000*,-702.6,966.214,91,29.2,45.0,0.409,737.5,2.1,1.050*
2018-07-16 03:52:00,-2.172E-01,4C000000*,-702.6,966.618,90,29.2,45.0,0.408,737.5,2.1,1.050*
2018-07-16 03:53:00,-2.962E-01,4C000000*,-702.6,967.022,90,29.2,45.0,0.408,737.5,2.1,1.050*
2018-07-16 03:54:00,-3.073E-01,4C000000*,-702.6,967.427,90,29.3,44.8,0.409,737.5,2.1,1.050*
2018-07-16 03:55:00,-2.588E-01,4C000000*,-703.0,967.427,87,29.4,45.2,0.409,737.5,2.1,1.050*
2018-07-16 03:56:00,-2.365E-01,4C000000*,-702.6,967.022,90,29.3,44.9,0.408,737.2,2.1,1.050*
2018-07-16 03:57:00,-3.183E-01,4C000000*,-702.6,967.831,90,29.4,45.0,0.408,737.8,2.1,1.050*
2018-07-16 03:58:00,-2.531E-01,4C000000*,-702.3,967.427,90,29.3,45.0,0.409,737.5,2.1,1.050*
2018-07-16 03:59:00,-2.720E-01,4C000000*,-702.6,968.639,90,29.4,45.0,0.408,737.5,2.1,1.050*
2018-07-16 04:00:00,-3.077E-01,4C000000*,-702.6,967.831,91,29.3,45.1,0.408,737.5,2.1,1.050*
2018-07-16 04:01:00,-2.634E-01,4C000000*,-702.3,966.618,90,29.3,44.8,0.409,737.5,2.1,1.050*
2018-07-16 04:02:00,-2.959E-01,4C000000*,-702.6,967.022,90,29.4,45.2,0.408,737.5,2.1,1.050*
2018-07-16 04:03:00,-3.271E-01,4C000000*,-702.3,968.235,91,29.3,44.8,0.408,737.2,2.1,1.050*
2018-07-16 04:04:00,-2.511E-01,4C000000*,-702.6,967.022,90,29.4,45.0,0.409,737.5,2.1,1.050*
2018-07-16 04:05:00,-2.822E-01,4C000000*,-703.0,967.427,90,29.4,44.9,0.408,737.5,2.1,1.050*
2018-07-16 04:06:00,-2.810E-01,4C000000*,-702.3,967.831,90,29.4,45.0,0.409,737.5,2.1,1.050*
2018-07-16 04:07:00,-1.745E-01,4C000000*,-702.3,967.831,90,29.3,45.1,0.408,737.2,2.1,1.050*
2018-07-16 04:08:00,-3.185E-01,4C000000*,-701.9,966.214,90,29.3,44.9,0.408,737.5,2.1,1.050*
2018-07-16 04:09:00,-2.518E-01,4C000000*,-702.6,967.427,88,29.3,45.2,0.408,737.2,2.1,1.050*
2018-07-16 04:10:00,-3.295E-01,4C000000*,-702.6,967.427,89,29.4,44.8,0.408,737.2,2.1,1.050*
2018-07-16 04:11:00,-2.168E-01,4C000000*,-703.0,967.831,90,29.3,45.1,0.408,737.5,2.1,1.050*
2018-07-16 04:12:00,-2.738E-01,4C000000*,-702.3,967.427,89,29.4,44.9,0.408,737.2,2.1,1.050*
2018-07-16 04:13:00,-1.760E-01,4C000000*,-702.6,966.214,90,29.4,45.0,0.408,737.2,2.1,1.050*
2018-07-16 04:14:00,-2.732E-01,4C000000*,-702.3,967.427,90,29.3,45.1,0.408,737.2,2.1,1.050*